FENGYUN 1C DEB

Satellite information

Favourite Embed

Satellite Type and Status

DEBRISIN ORBIT

Key statistics

Satellite FENGYUN 1C DEB at a glance.

Uptime

9715

Days in orbit

Revolutions

≈ 14.5

Per day

Orbit

SSO

Sun Synchronous Orbit

Inclination

99.5

Latest

Satellite identification and parameters

Extended collection of information and parameters for FENGYUN 1C DEB.

Object identification

Identified? True

Debris? True

Object name: FENGYUN 1C DEB

International designator: 1999-025CXH

Object number (NORAD): 32316

Object ID (CCSDS): 32316

Country: PEOPLES REPUBLIC OF CHINA (PRC)

Current information (Y/N): Y

RCS size: SMALL

Orbital parameters

Period: 99.184 minutes

Inclination: 99.5296 deg

SMA: 7097.754 km

Apoapsis: 738.414 km

Periapsis: 700.824 km

RAAN: 12.4151 deg

Eccentricy: 0.00264801

Argument of periapsis: 331.5033 deg

Mean anomaly: 58.6376 deg

Mean motion: 14.51848634 rev/day

Mean motion (dot): 0.00010644 rev/day2

B* drag term: 0.002641373 1/REarth

Two-line elements (TLE)

Creation date: Dec. 12, 2025, 10:14 a.m.

Reference frame: TEME

Reference center: EARTH

Epoch: Dec. 12, 2025, 1:06 a.m. UTC

TLE line 0: 0 FENGYUN 1C DEB

TLE line 1: 1 32316U 99025CXH 25346.04589769 .00010644 00000-0 26414-2 0 9992

TLE line 2: 2 32316 99.5296 12.4151 0026480 331.5033 58.6376 14.51848634957672

Live tracking on map

Real-time ground track for satellite FENGYUN 1C DEB.

In-orbit conjunctions

A list of the most updated potential collisions computed for object FENGYUN 1C DEB.

Target Orbit TCA Probability of collision Miss distance Type
COSMOS 2251 DEB LEO 2025-09-07 18:20:21 0.000104016 360.0 (m) DEBRIS
COSMOS 2251 DEB LEO 2024-11-08 20:58:23 0.0001296957 653.0 (m) DEBRIS

Associated space launch

Chinese polar orbiting meteorological satellite

FENGYUN 1C DEB was lifted into orbit during the mission ‘Long March 4B | Feng Yun 1C’, on board a Long March 4B space rocket.

The launch took place on May 10, 1999, 1:33 a.m. from Launch Complex 7.

For more information about the launch, click the button.

Launch to space Long March 4B | Feng Yun 1C
Long March 4B | Feng Yun 1C

Agency: N/A

Status: Launch Successful

Launch date: May 10, 1999, 1:33 a.m. UTC

Rocket: Long March 4B

Launch pad: Launch Complex 7

Location: Taiyuan Satellite Launch Center, People's Republic of China

...

Latest news about this satellite

There are no fresh news available about this satellite. Check back as we update our databases every day.


Newsletter sign-up

Weekly statistics, charts and insights to help you stay on top of the space industry.